| time (UTC) | temp F | wind direction | speed MPH | gust MPH | rain 1hr in | rain 24hr in | rain mn in | humidity % | barometer mb |
| 20260506084549 | 54 | 255 | 0.0 | 0.0 | 0.00 | 0.00 | 0.00 | 87 | 1024.1 |
| 20260506084046 | 54 | 255 | 0.0 | 0.0 | 0.00 | 0.00 | 0.00 | 87 | 1024.1 |
| 20260506083545 | 54 | 255 | 0.0 | 0.0 | 0.00 | 0.00 | 0.00 | 87 | 1024.1 |
| 20260506083046 | 54 | 255 | 0.0 | 0.0 | 0.00 | 0.00 | 0.00 | 87 | 1024.1 |
| 20260506082547 | 54 | 255 | 0.0 | 0.0 | 0.00 | 0.00 | 0.00 | 87 | 1024.1 |
| 20260506082051 | 54 | 255 | 0.0 | 0.0 | 0.00 | 0.00 | 0.00 | 87 | 1024.1 |
| 20260506081547 | 54 | 255 | 0.0 | 0.0 | 0.00 | 0.00 | 0.00 | 86 | 1024.1 |
| 20260506081045 | 54 | 255 | 0.0 | 5.0 | 0.00 | 0.00 | 0.00 | 86 | 1024.1 |
| 20260506080544 | 54 | 255 | 0.0 | 5.0 | 0.00 | 0.00 | 0.00 | 86 | 1024.1 |
| 20260506073045 | 54 | 290 | 0.0 | 3.0 | 0.00 | 0.00 | 0.00 | 85 | 1023.7 |
| 20260506072540 | 54 | 290 | 0.0 | 2.0 | 0.00 | 0.00 | 0.00 | 85 | 1023.7 |
| 20260506072041 | 54 | 290 | 0.0 | 3.0 | 0.00 | 0.00 | 0.00 | 85 | 1023.6 |
| 20260506071550 | 54 | 290 | 0.0 | 5.0 | 0.00 | 0.00 | 0.00 | 84 | 1023.6 |
| 20260506071038 | 54 | 271 | 0.0 | 4.0 | 0.00 | 0.00 | 0.00 | 84 | 1023.5 |
| 20260506070538 | 54 | 270 | 0.0 | 4.0 | 0.00 | 0.00 | 0.00 | 84 | 1023.5 |
| 20260506062034 | 54 | 276 | 1.0 | 5.0 | 0.00 | 0.00 | 0.00 | 84 | 1023.0 |
| 20260506061535 | 54 | 262 | 0.0 | 5.0 | 0.00 | 0.00 | 0.00 | 84 | 1023.0 |
| 20260506061033 | 54 | 232 | 0.0 | 7.0 | 0.00 | 0.00 | 0.00 | 84 | 1022.9 |
| 20260506060540 | 54 | 222 | 0.0 | 7.0 | 0.00 | 0.00 | 0.00 | 84 | 1022.9 |
| 20260506051037 | 55 | 212 | 3.0 | 11.0 | 0.00 | 0.07 | 0.00 | 82 | 1022.5 |
| 20260506050532 | 55 | 236 | 3.0 | 11.0 | 0.00 | 0.07 | 0.00 | 82 | 1022.5 |
| 20260506045026 | 55 | 199 | 3.0 | 11.0 | 0.00 | 0.07 | 0.00 | 82 | 1022.2 |
| 20260506044527 | 55 | 200 | 0.0 | 11.0 | 0.00 | 0.07 | 0.00 | 82 | 1022.1 |
| 20260506044028 | 55 | 212 | 0.0 | 7.0 | 0.00 | 0.07 | 0.00 | 81 | 1022.1 |
| 20260506043525 | 56 | 296 | 1.0 | 11.0 | 0.00 | 0.07 | 0.00 | 81 | 1022.0 |
| 20260506043026 | 56 | 253 | 2.0 | 11.0 | 0.00 | 0.07 | 0.00 | 81 | 1022.0 |
| 20260506042524 | 56 | 301 | 2.0 | 14.0 | 0.00 | 0.07 | 0.00 | 81 | 1021.9 |
| 20260506042026 | 56 | 209 | 2.0 | 9.0 | 0.00 | 0.07 | 0.00 | 81 | 1021.8 |
| 20260506041530 | 56 | 176 | 0.0 | 13.0 | 0.00 | 0.07 | 0.00 | 80 | 1021.8 |
| 20260506041022 | 56 | 278 | 3.0 | 13.0 | 0.00 | 0.07 | 0.00 | 80 | 1021.5 |
| 20260506040525 | 57 | 234 | 4.0 | 13.0 | 0.00 | 0.07 | 0.00 | 80 | 1021.5 |
| 20260506040026 | 57 | 195 | 3.0 | 12.0 | 0.00 | 0.07 | 0.00 | 80 | 1021.3 |
| 20260506035523 | 57 | 257 | 4.0 | 12.0 | 0.00 | 0.07 | 0.00 | 80 | 1021.3 |
| 20260506035022 | 57 | 205 | 1.0 | 8.0 | 0.00 | 0.07 | 0.00 | 80 | 1021.1 |
| 20260506034524 | 57 | 303 | 3.0 | 9.0 | 0.00 | 0.07 | 0.00 | 79 | 1021.1 |
| 20260506034024 | 57 | 328 | 1.0 | 10.0 | 0.00 | 0.07 | 0.00 | 80 | 1020.9 |
| 20260506033521 | 58 | 174 | 2.0 | 10.0 | 0.00 | 0.07 | 0.00 | 80 | 1020.8 |
| 20260506033027 | 58 | 251 | 1.0 | 11.0 | 0.00 | 0.07 | 0.00 | 80 | 1020.7 |
| 20260506032523 | 58 | 217 | 1.0 | 11.0 | 0.00 | 0.07 | 0.00 | 79 | 1020.6 |
| 20260506032023 | 58 | 213 | 2.0 | 13.0 | 0.00 | 0.07 | 0.00 | 79 | 1020.5 |
| 20260506031525 | 58 | 201 | 3.0 | 13.0 | 0.00 | 0.07 | 0.00 | 79 | 1020.5 |
| 20260506031022 | 58 | 277 | 2.0 | 13.0 | 0.00 | 0.07 | 0.00 | 78 | 1020.4 |
| 20260506030524 | 58 | 254 | 2.0 | 13.0 | 0.00 | 0.07 | 0.00 | 78 | 1020.4 |
| 20260506030025 | 58 | 220 | 6.0 | 13.0 | 0.00 | 0.07 | 0.00 | 78 | 1020.3 |
| 20260506025521 | 58 | 211 | 5.0 | 13.0 | 0.00 | 0.07 | 0.00 | 77 | 1020.2 |
| 20260506025023 | 58 | 195 | 4.0 | 16.0 | 0.00 | 0.07 | 0.00 | 78 | 1020.1 |
| 20260506024521 | 59 | 201 | 3.0 | 16.0 | 0.00 | 0.07 | 0.00 | 78 | 1020.0 |
| 20260506024022 | 59 | 211 | 5.0 | 13.0 | 0.00 | 0.07 | 0.00 | 77 | 1019.9 |
| 20260506023520 | 59 | 212 | 6.0 | 15.0 | 0.00 | 0.07 | 0.00 | 77 | 1019.8 |
| 20260506023020 | 59 | 220 | 6.0 | 14.0 | 0.00 | 0.07 | 0.00 | 77 | 1019.8 |
| 20260506022520 | 59 | 178 | 6.0 | 14.0 | 0.00 | 0.07 | 0.00 | 76 | 1019.8 |
| 20260506022023 | 60 | 155 | 5.0 | 13.0 | 0.00 | 0.07 | 0.00 | 76 | 1019.7 |
| 20260506021520 | 60 | 195 | 3.0 | 15.0 | 0.00 | 0.07 | 0.00 | 75 | 1019.7 |
| 20260506021020 | 60 | 215 | 5.0 | 13.0 | 0.00 | 0.07 | 0.00 | 74 | 1019.7 |
| 20260506020520 | 60 | 217 | 6.0 | 13.0 | 0.00 | 0.07 | 0.00 | 74 | 1019.7 |
| 20260506020023 | 61 | 214 | 5.0 | 13.0 | 0.00 | 0.07 | 0.00 | 73 | 1019.6 |
| 20260506015521 | 61 | 284 | 4.0 | 13.0 | 0.00 | 0.07 | 0.00 | 74 | 1019.6 |
| 20260506015022 | 61 | 181 | 4.0 | 10.0 | 0.00 | 0.07 | 0.00 | 73 | 1019.7 |
| 20260506014522 | 62 | 249 | 3.0 | 14.0 | 0.00 | 0.07 | 0.00 | 73 | 1019.5 |
| 20260506014019 | 62 | 195 | 4.0 | 14.0 | 0.00 | 0.07 | 0.00 | 73 | 1019.5 |
| 20260506013520 | 62 | 176 | 4.0 | 16.0 | 0.00 | 0.07 | 0.00 | 72 | 1019.5 |
| 20260506013026 | 62 | 190 | 6.0 | 16.0 | 0.00 | 0.07 | 0.00 | 71 | 1019.4 |
| 20260506012520 | 62 | 182 | 2.0 | 12.0 | 0.00 | 0.07 | 0.00 | 71 | 1019.4 |
| 20260506012019 | 62 | 213 | 6.0 | 15.0 | 0.00 | 0.07 | 0.00 | 70 | 1019.3 |
| 20260506011520 | 62 | 209 | 4.0 | 15.0 | 0.00 | 0.07 | 0.00 | 69 | 1019.3 |
| 20260506011019 | 63 | 186 | 5.0 | 12.0 | 0.00 | 0.07 | 0.00 | 68 | 1019.3 |
| 20260506010519 | 63 | 201 | 4.0 | 12.0 | 0.00 | 0.07 | 0.00 | 68 | 1019.3 |
| 20260506010025 | 63 | 191 | 2.0 | 14.0 | 0.00 | 0.07 | 0.00 | 68 | 1019.2 |
| 20260506005520 | 63 | 224 | 6.0 | 14.0 | 0.00 | 0.07 | 0.00 | 68 | 1019.2 |
| 20260506005019 | 64 | 198 | 5.0 | 13.0 | 0.00 | 0.07 | 0.00 | 68 | 1019.3 |
| 20260506004528 | 64 | 195 | 5.0 | 13.0 | 0.00 | 0.07 | 0.00 | 67 | 1019.3 |
| 20260506004018 | 64 | 199 | 4.0 | 12.0 | 0.00 | 0.07 | 0.00 | 66 | 1019.3 |
| 20260506003518 | 64 | 199 | 3.0 | 13.0 | 0.00 | 0.07 | 0.00 | 66 | 1019.2 |
| 20260506003018 | 65 | 249 | 2.0 | 9.0 | 0.00 | 0.07 | 0.00 | 66 | 1019.3 |
| 20260506002518 | 65 | 171 | 2.0 | 8.0 | 0.00 | 0.07 | 0.00 | 66 | 1019.2 |
| 20260506002018 | 65 | 176 | 3.0 | 11.0 | 0.00 | 0.07 | 0.00 | 65 | 1019.2 |
| 20260506001518 | 66 | 165 | 3.0 | 11.0 | 0.00 | 0.07 | 0.00 | 64 | 1019.2 |
| 20260506001018 | 67 | 192 | 4.0 | 11.0 | 0.00 | 0.07 | 0.00 | 62 | 1019.2 |
| 20260506000519 | 67 | 219 | 3.0 | 9.0 | 0.00 | 0.07 | 0.00 | 61 | 1019.2 |
| 20260506000022 | 67 | 320 | 0.0 | 7.0 | 0.00 | 0.07 | 0.00 | 61 | 1019.2 |
| 20260505235519 | 67 | 287 | 0.0 | 6.0 | 0.00 | 0.07 | 0.00 | 60 | 1019.2 |
| 20260505235019 | 68 | 184 | 2.0 | 8.0 | 0.00 | 0.07 | 0.00 | 60 | 1019.2 |
| 20260505234520 | 68 | 217 | 1.0 | 8.0 | 0.00 | 0.07 | 0.00 | 59 | 1019.2 |
| 20260505234019 | 68 | 242 | 0.0 | 5.0 | 0.00 | 0.07 | 0.00 | 60 | 1019.2 |
| 20260505233518 | 69 | 301 | 0.0 | 4.0 | 0.00 | 0.07 | 0.00 | 59 | 1019.2 |
| 20260505233018 | 69 | 304 | 0.0 | 4.0 | 0.00 | 0.07 | 0.00 | 59 | 1019.3 |
| 20260505232518 | 69 | 313 | 0.0 | 0.0 | 0.00 | 0.07 | 0.00 | 60 | 1019.3 |
| 20260505232017 | 68 | 318 | 0.0 | 0.0 | 0.00 | 0.07 | 0.00 | 60 | 1019.3 |
| 20260505231518 | 69 | 318 | 0.0 | 3.0 | 0.00 | 0.07 | 0.00 | 59 | 1019.3 |
| 20260505231021 | 69 | 326 | 0.0 | 3.0 | 0.00 | 0.07 | 0.00 | 58 | 1019.4 |
| 20260505230521 | 69 | 326 | 0.0 | 3.0 | 0.00 | 0.07 | 0.00 | 58 | 1019.4 |
| 20260505230017 | 70 | 321 | 0.0 | 4.0 | 0.00 | 0.07 | 0.00 | 56 | 1019.5 |
| 20260505225517 | 70 | 332 | 0.0 | 5.0 | 0.00 | 0.07 | 0.00 | 55 | 1019.5 |
| 20260505225017 | 70 | 334 | 0.0 | 5.0 | 0.00 | 0.07 | 0.00 | 55 | 1019.5 |
| 20260505224526 | 69 | 88 | 0.0 | 0.0 | 0.00 | 0.07 | 0.00 | 55 | 1019.6 |
| 20260505224018 | 69 | 89 | 0.0 | 0.0 | 0.00 | 0.07 | 0.00 | 56 | 1019.7 |
| 20260505223518 | 69 | 89 | 0.0 | 2.0 | 0.00 | 0.07 | 0.00 | 54 | 1019.7 |
| 20260505223018 | 70 | 88 | 0.0 | 3.0 | 0.00 | 0.07 | 0.00 | 52 | 1019.8 |
| 20260505222516 | 71 | 88 | 0.0 | 3.0 | 0.00 | 0.07 | 0.00 | 51 | 1019.9 |
| 20260505222016 | 71 | 197 | 0.0 | 2.0 | 0.00 | 0.07 | 0.00 | 53 | 1019.9 |
| 20260505221516 | 71 | 213 | 0.0 | 4.0 | 0.00 | 0.07 | 0.00 | 53 | 1020.0 |
| 20260505221015 | 70 | 273 | 0.0 | 1.0 | 0.00 | 0.07 | 0.00 | 53 | 1020.0 |
| 20260505220514 | 70 | 273 | 0.0 | 1.0 | 0.00 | 0.07 | 0.00 | 52 | 1020.0 |
| 20260505220026 | 70 | 273 | 0.0 | 1.0 | 0.00 | 0.07 | 0.00 | 53 | 1020.0 |
| 20260505215516 | 70 | 273 | 0.0 | 3.0 | 0.00 | 0.07 | 0.00 | 55 | 1020.1 |
| 20260505215012 | 69 | 273 | 0.0 | 3.0 | 0.00 | 0.07 | 0.00 | 55 | 1020.1 |
| 20260505214516 | 68 | 279 | 0.0 | 2.0 | 0.00 | 0.07 | 0.00 | 54 | 1020.3 |
| 20260505214011 | 68 | 279 | 0.0 | 2.0 | 0.00 | 0.07 | 0.00 | 54 | 1020.3 |
| 20260505213510 | 68 | 279 | 0.0 | 2.0 | 0.00 | 0.07 | 0.00 | 54 | 1020.4 |
| 20260505213009 | 68 | 279 | 0.0 | 3.0 | 0.00 | 0.07 | 0.00 | 54 | 1020.4 |
| 20260505212509 | 68 | 279 | 0.0 | 3.0 | 0.00 | 0.07 | 0.00 | 56 | 1020.4 |
| 20260505212008 | 67 | 278 | 0.0 | 3.0 | 0.00 | 0.07 | 0.00 | 56 | 1020.4 |
| 20260505211507 | 67 | 272 | 0.0 | 4.0 | 0.00 | 0.07 | 0.00 | 56 | 1020.4 |
| 20260505211009 | 66 | 265 | 0.0 | 2.0 | 0.00 | 0.10 | 0.00 | 58 | 1020.6 |
| 20260505210508 | 66 | 265 | 0.0 | 2.0 | 0.00 | 0.10 | 0.00 | 58 | 1020.6 |
| 20260505210007 | 65 | 265 | 0.0 | 3.0 | 0.00 | 0.10 | 0.00 | 61 | 1020.7 |
| 20260505205511 | 64 | 265 | 0.0 | 3.0 | 0.00 | 0.10 | 0.00 | 62 | 1020.8 |
| 20260505205009 | 64 | 265 | 0.0 | 2.0 | 0.00 | 0.10 | 0.00 | 62 | 1020.7 |
| 20260505204514 | 64 | 265 | 0.0 | 3.0 | 0.00 | 0.10 | 0.00 | 61 | 1020.7 |
| 20260505204004 | 64 | 266 | 0.0 | 3.0 | 0.00 | 0.10 | 0.00 | 64 | 1020.7 |
| 20260505203503 | 63 | 266 | 0.0 | 4.0 | 0.00 | 0.10 | 0.00 | 66 | 1020.7 |
| 20260505203004 | 63 | 266 | 0.0 | 5.0 | 0.00 | 0.10 | 0.00 | 67 | 1020.8 |
| 20260505202504 | 63 | 261 | 0.0 | 5.0 | 0.00 | 0.10 | 0.00 | 66 | 1020.9 |
| 20260505202004 | 63 | 254 | 0.0 | 5.0 | 0.00 | 0.10 | 0.00 | 67 | 1020.9 |
| 20260505201503 | 64 | 247 | 0.0 | 5.0 | 0.00 | 0.13 | 0.00 | 67 | 1020.9 |
| 20260505201003 | 64 | 195 | 0.0 | 9.0 | 0.00 | 0.13 | 0.00 | 67 | 1021.0 |
| 20260505200503 | 64 | 192 | 0.0 | 9.0 | 0.00 | 0.13 | 0.00 | 67 | 1020.9 |
| 20260505200004 | 64 | 192 | 3.0 | 9.0 | 0.00 | 0.13 | 0.00 | 66 | 1021.0 |
| 20260505195501 | 64 | 76 | 1.0 | 5.0 | 0.00 | 0.13 | 0.00 | 64 | 1020.9 |
| 20260505195100 | 64 | 74 | 0.0 | 4.0 | 0.00 | 0.13 | 0.00 | 65 | 1021.0 |
| 20260505194603 | 63 | 72 | 0.0 | 5.0 | 0.00 | 0.13 | 0.00 | 67 | 1021.0 |
| 20260505194102 | 63 | 70 | 2.0 | 6.0 | 0.00 | 0.13 | 0.00 | 65 | 1021.0 |
| 20260505193631 | 63 | 83 | 2.0 | 6.0 | 0.00 | 0.13 | 0.00 | 65 | 1021.1 |
| 20260505193057 | 63 | 71 | 0.0 | 5.0 | 0.00 | 0.13 | 0.00 | 66 | 1021.1 |
| 20260505192601 | 63 | 96 | 0.0 | 5.0 | 0.00 | 0.13 | 0.00 | 66 | 1021.1 |
| 20260505192055 | 62 | 107 | 1.0 | 8.0 | 0.00 | 0.13 | 0.00 | 69 | 1021.1 |
| 20260505191603 | 62 | 92 | 2.0 | 8.0 | 0.00 | 0.13 | 0.00 | 66 | 1021.1 |
| 20260505191054 | 62 | 97 | 1.0 | 7.0 | 0.00 | 0.13 | 0.00 | 68 | 1021.1 |
| 20260505190112 | 61 | 100 | 5.0 | 9.0 | 0.00 | 0.13 | 0.00 | 68 | 1021.2 |
| 20260505185556 | 61 | 94 | 2.0 | 8.0 | 0.00 | 0.13 | 0.00 | 69 | 1021.2 |
| 20260505185055 | 61 | 99 | 2.0 | 7.0 | 0.00 | 0.13 | 0.00 | 69 | 1021.2 |
| 20260505184607 | 61 | 96 | 3.0 | 7.0 | 0.00 | 0.13 | 0.00 | 67 | 1021.2 |
| 20260505184055 | 62 | 107 | 1.0 | 6.0 | 0.00 | 0.13 | 0.00 | 69 | 1021.2 |
| 20260505183553 | 61 | 109 | 2.0 | 6.0 | 0.00 | 0.13 | 0.00 | 68 | 1021.2 |
| 20260505183054 | 61 | 101 | 1.0 | 6.0 | 0.00 | 0.13 | 0.00 | 68 | 1021.2 |
| 20260505182551 | 60 | 109 | 2.0 | 6.0 | 0.00 | 0.13 | 0.00 | 71 | 1021.2 |
| 20260505182054 | 60 | 92 | 1.0 | 6.0 | 0.00 | 0.13 | 0.00 | 68 | 1021.3 |
| 20260505181551 | 60 | 92 | 1.0 | 6.0 | 0.00 | 0.13 | 0.00 | 69 | 1021.3 |
| 20260505181055 | 59 | 90 | 1.0 | 6.0 | 0.00 | 0.13 | 0.00 | 69 | 1021.2 |
| 20260505180051 | 60 | 89 | 0.0 | 6.0 | 0.00 | 0.13 | 0.00 | 69 | 1021.2 |
| 20260505175548 | 60 | 82 | 0.0 | 4.0 | 0.00 | 0.13 | 0.00 | 69 | 1021.2 |
| 20260505175047 | 59 | 86 | 0.0 | 5.0 | 0.00 | 0.13 | 0.00 | 71 | 1021.2 |
| 20260505174546 | 59 | 128 | 0.0 | 3.0 | 0.00 | 0.13 | 0.00 | 71 | 1021.1 |
| 20260505174043 | 58 | 263 | 0.0 | 0.0 | 0.00 | 0.13 | 0.00 | 73 | 1021.1 |
| 20260505173542 | 57 | 263 | 0.0 | 0.0 | 0.00 | 0.13 | 0.00 | 73 | 1021.1 |
| 20260505173044 | 56 | 276 | 0.0 | 0.0 | 0.00 | 0.13 | 0.00 | 74 | 1021.1 |
| 20260505172541 | 56 | 276 | 0.0 | 1.0 | 0.00 | 0.13 | 0.00 | 75 | 1021.1 |
| 20260505172039 | 56 | 275 | 0.0 | 1.0 | 0.00 | 0.13 | 0.00 | 77 | 1021.1 |
| 20260505171542 | 55 | 275 | 0.0 | 0.0 | 0.00 | 0.13 | 0.00 | 78 | 1021.1 |
| 20260505171037 | 55 | 275 | 0.0 | 2.0 | 0.00 | 0.13 | 0.00 | 79 | 1021.1 |
| 20260505170505 | 54 | 282 | 0.0 | 0.0 | 0.00 | 0.13 | 0.00 | 79 | 1021.1 |
| 20260505170005 | 54 | 292 | 0.0 | 0.0 | 0.00 | 0.13 | 0.00 | 79 | 1021.1 |
| 20260505165501 | 53 | 231 | 0.0 | 1.0 | 0.00 | 0.13 | 0.00 | 81 | 1021.1 |
| 20260505165100 | 53 | 215 | 0.0 | 5.0 | 0.00 | 0.13 | 0.00 | 82 | 1021.1 |
| 20260505164602 | 53 | 284 | 0.0 | 5.0 | 0.00 | 0.13 | 0.00 | 81 | 1021.0 |
| 20260505164059 | 52 | 226 | 0.0 | 3.0 | 0.00 | 0.13 | 0.00 | 82 | 1021.0 |
| 20260505163558 | 52 | 298 | 0.0 | 4.0 | 0.00 | 0.13 | 0.00 | 82 | 1021.1 |
| 20260505163109 | 52 | 300 | 0.0 | 5.0 | 0.00 | 0.13 | 0.00 | 83 | 1021.1 |
| 20260505162557 | 52 | 191 | 1.0 | 5.0 | 0.00 | 0.13 | 0.00 | 83 | 1021.1 |
| 20260505162056 | 51 | 199 | 0.0 | 5.0 | 0.00 | 0.13 | 0.00 | 85 | 1021.1 |
| 20260505161555 | 51 | 199 | 1.0 | 5.0 | 0.00 | 0.13 | 0.00 | 84 | 1021.0 |
| 20260505161057 | 51 | 192 | 0.0 | 5.0 | 0.00 | 0.13 | 0.00 | 85 | 1021.0 |
| 20260505153018 | 50 | 228 | 1.0 | 9.0 | 0.00 | 0.13 | 0.00 | 87 | 1020.7 |
| 20260505152510 | 50 | 197 | 3.0 | 8.0 | 0.00 | 0.13 | 0.00 | 87 | 1020.7 |
| 20260505152015 | 50 | 233 | 0.0 | 9.0 | 0.00 | 0.13 | 0.00 | 87 | 1020.6 |
| 20260505151510 | 49 | 199 | 1.0 | 8.0 | 0.00 | 0.13 | 0.00 | 87 | 1020.6 |
| 20260505151009 | 49 | 205 | 1.0 | 7.0 | 0.00 | 0.13 | 0.00 | 87 | 1020.6 |
| 20260505124607 | 49 | 238 | 0.0 | 7.0 | 0.00 | 0.13 | 0.00 | 86 | 1019.7 |
| 20260505124059 | 49 | 206 | 0.0 | 7.0 | 0.00 | 0.13 | 0.00 | 87 | 1019.6 |
| 20260505123600 | 49 | 257 | 1.0 | 7.0 | 0.00 | 0.13 | 0.00 | 86 | 1019.6 |
| 20260505123502 | 49 | 216 | 1.0 | 8.0 | 0.00 | 0.13 | 0.00 | 86 | 1019.7 |
| 20260505123112 | 49 | 235 | 1.0 | 8.0 | 0.00 | 0.13 | 0.00 | 86 | 1019.6 |
| 20260505122558 | 49 | 208 | 0.0 | 8.0 | 0.00 | 0.13 | 0.00 | 86 | 1019.5 |
| 20260505122058 | 49 | 305 | 1.0 | 7.0 | 0.00 | 0.13 | 0.00 | 87 | 1019.5 |
| 20260505121559 | 49 | 257 | 1.0 | 6.0 | 0.00 | 0.13 | 0.00 | 86 | 1019.5 |
| 20260505121100 | 49 | 224 | 0.0 | 8.0 | 0.00 | 0.13 | 0.00 | 87 | 1019.6 |
| 20260505120058 | 49 | 220 | 1.0 | 10.0 | 0.00 | 0.13 | 0.00 | 86 | 1019.7 |
| 20260505115556 | 49 | 191 | 4.0 | 10.0 | 0.00 | 0.13 | 0.00 | 86 | 1019.6 |
| 20260505115056 | 49 | 222 | 2.0 | 10.0 | 0.00 | 0.13 | 0.00 | 86 | 1019.5 |
| 20260505114603 | 49 | 205 | 2.0 | 10.0 | 0.00 | 0.13 | 0.00 | 86 | 1019.5 |
| 20260505114055 | 49 | 210 | 1.0 | 10.0 | 0.00 | 0.13 | 0.00 | 87 | 1019.7 |
| 20260505113557 | 49 | 252 | 3.0 | 10.0 | 0.00 | 0.13 | 0.00 | 86 | 1019.6 |
| 20260505113056 | 49 | 261 | 0.0 | 8.0 | 0.00 | 0.13 | 0.00 | 87 | 1019.7 |
| 20260505112554 | 49 | 215 | 0.0 | 9.0 | 0.00 | 0.13 | 0.00 | 87 | 1019.7 |
| 20260505112054 | 49 | 246 | 1.0 | 9.0 | 0.00 | 0.13 | 0.00 | 88 | 1019.7 |
| 20260505111559 | 49 | 293 | 0.0 | 8.0 | 0.00 | 0.13 | 0.00 | 87 | 1019.6 |
| 20260505111056 | 49 | 247 | 2.0 | 7.0 | 0.00 | 0.13 | 0.00 | 87 | 1019.7 |
| 20260505102052 | 49 | 290 | 1.0 | 10.0 | 0.00 | 0.13 | 0.00 | 88 | 1019.8 |
| 20260505101552 | 49 | 295 | 1.0 | 9.0 | 0.00 | 0.13 | 0.00 | 88 | 1019.6 |
| 20260505101052 | 49 | 292 | 3.0 | 11.0 | 0.00 | 0.13 | 0.00 | 88 | 1019.6 |
| 20260505100059 | 49 | 288 | 3.0 | 12.0 | 0.00 | 0.13 | 0.00 | 88 | 1019.4 |
| 20260505095552 | 49 | 141 | 3.0 | 19.0 | 0.00 | 0.13 | 0.00 | 88 | 1019.3 |
| 20260505095054 | 49 | 265 | 4.0 | 19.0 | 0.00 | 0.13 | 0.00 | 88 | 1019.2 |
| 20260505094551 | 49 | 232 | 3.0 | 15.0 | 0.00 | 0.13 | 0.00 | 88 | 1019.1 |
| 20260505094049 | 49 | 259 | 4.0 | 15.0 | 0.00 | 0.13 | 0.00 | 89 | 1019.2 |
| 20260505093553 | 49 | 267 | 2.0 | 15.0 | 0.00 | 0.13 | 0.00 | 88 | 1019.2 |
| 20260505093050 | 49 | 305 | 0.0 | 19.0 | 0.00 | 0.13 | 0.00 | 88 | 1019.2 |
| 20260505092552 | 49 | 186 | 2.0 | 19.0 | 0.00 | 0.13 | 0.00 | 89 | 1019.4 |
| 20260505092047 | 49 | 310 | 2.0 | 15.0 | 0.00 | 0.13 | 0.00 | 88 | 1019.4 |
| 20260505091549 | 49 | 205 | 4.0 | 15.0 | 0.00 | 0.13 | 0.00 | 88 | 1019.7 |
| 20260505091045 | 49 | 290 | 1.0 | 13.0 | 0.00 | 0.13 | 0.13 | 89 | 1019.5 |
| 20260505090052 | 49 | 164 | 1.0 | 11.0 | 0.00 | 0.13 | 0.13 | 88 | 1019.5 |
| 20260505085544 | 49 | 161 | 1.0 | 11.0 | 0.00 | 0.13 | 0.13 | 88 | 1019.5 |
| 20260505085047 | 49 | 129 | 1.0 | 9.0 | 0.00 | 0.13 | 0.13 | 88 | 1019.7 |